Regional Weather Roundup
Issued by NWS Cleveland, OH

Home | Current Version | Previous Version | Graphics & Text | Print | Product List | Glossary On
Versions: 1 2 3 4 5 6 7 8 9 10 11 12 13 14 15 16 17 18 19 20 21 22 23 24 25 26 27 28 29 30 31 32 33 34 35 36 37 38 39 40 41 42 43 44 45 46 47 48 49 50
000
ASUS41 KCLE 200202
RWRCLE
OHIO REGIONAL WEATHER ROUNDUP
NATIONAL WEATHER SERVICE CLEVELAND, OH
1000 PM EDT SAT AUG 19 2017

NOTE: "FAIR" INDICATES FEW OR NO CLOUDS BELOW 12,000 FEET WITH NO
SIGNIFICANT WEATHER AND/OR OBSTRUCTIONS TO VISIBILITY.

OHZ001>008-015>018-024>027-034-035-043-044-200300-
   NORTHWEST OHIO

CITY           SKY/WX    TMP DP  RH WIND       PRES   REMARKS
DEFIANCE       CLEAR     66  62  87 CALM      29.99R
FINDLAY        CLEAR     68  60  75 S3        29.99R
TOLEDO EXPRESS CLEAR     65  64  97 CALM      29.98R
TOLEDO EXEC    CLEAR     70  61  73 CALM      29.99R
LIMA           CLEAR     63  60  90 E3        30.00R
$$

OHZ009>014-019>023-028>033-038-089-200300-
   NORTHEAST OHIO

CITY           SKY/WX    TMP DP  RH WIND       PRES   REMARKS
CLE-HOPKINS    CLEAR     72  61  68 E3        30.01R
CLE-LAKEFRONT  CLEAR     73  58  59 CALM      29.98R
CUY CO. ARPT   CLEAR     66  61  82 CALM      30.00R
LORAIN-ELYRIA    N/A    N/A N/A N/A MISG      30.00R
ASHTABULA      CLEAR     62  61  96 CALM      30.00R
AKRON-CANTON   CLEAR     69  58  67 N5        30.01R
WOOSTER        CLEAR     63  62  97 CALM      30.01R
MANSFIELD      CLEAR     68  61  78 NE3       30.01R
YOUNGSTOWN     CLEAR     64  60  87 CALM      30.00R
$$

OHZ042-051>053-060>062-070>072-077>081-200300-
  SOUTHWEST OHIO

CITY           SKY/WX    TMP DP  RH WIND       PRES   REMARKS
CINC-COVINGTON PTCLDY    76  69  79 W3        29.98R
CINC-LUNKEN    CLEAR     73  69  87 N6        29.98R
HAMILTON       PTCLDY    71  69  93 CALM      29.98R
DAYTON         CLEAR     72  60  66 N5        30.01R
WRIGHT-PAT AFB CLEAR     73  65  76 CALM      29.99R
DAYTON GENERAL CLEAR     73  65  75 NE5       29.99R
WILMINGTON     PTCLDY    70  66  87 CALM      30.00R
$$

OHZ036-037-039>041-045>050-054>059-063>069-073>076-082>088-200300-
  CENTRAL AND SOUTHEAST OHIO

CITY           SKY/WX    TMP DP  RH WIND       PRES   REMARKS
COLUMBUS       CLEAR     73  65  75 NE3       29.99R
OSU AIRPORT    CLEAR     73  61  65 CALM      30.00R
BOLTON FIELD   CLEAR     71  61  72 CALM      30.00R
RICKENBACK AFB CLEAR     70  65  86 CALM      29.99R
NEWARK         FOG       66  65  96 CALM      30.00R VSB 1/4
MARION         CLEAR     67  59  75 CALM      30.01R
LANCASTER      PTCLDY    69  67  93 SE5       30.01R
ZANESVILLE     PTCLDY    65  63  93 CALM      30.00R FOG
NEW PHILLY     NOT AVBL
$$




USA.gov is the U.S. government's official web portal to all federal, state and local government web resources and services.